Find PRSC-EO1

NORAD ID: 62726 Int'l Des: NNA 2025-012 Owner: SUPA Country: PK operational
LEOCIRCULARRETROGRADESSO

实时位置

正在加载3D地球...

关于 PRSC-EO1

正在加载描述...

即将过境

Passes for default location (London). Set your location on the main map for personalized predictions.

高度历史

Loading altitude history...

两行轨道根数

1 62726U 25012B 26104.18412718 .00002461 00000-0 11522-3 0 9995
2 62726 97.4260 178.1741 0010316 134.6301 225.5777 15.20629492 68527
Epoch: Apr 14, 2026 • Age: 11 hours

当前状态

高度 527.7 km
速度 7.59 km/s
星下点 -43.12°S, 113.53°E
发射日期 Jan 17, 2025
运行时间 1.2 years
类型 other

技术详情

分类 Payload
质量 500.00 kg
干质量 500.00 kg
总质量 500.00 kg
长度 2.00 m
直径 1.50 m
跨度 8.00 m
形状 Box + 2 Pan
制造商 SUPA
平台类型 PRSC-EO
阶段状态 In Orbit
所有者/国家 SUPA/PK

Most Searched